Cosmos 1939 - Orbit

View from above orbital plane
View from above orbital plane
View from above satellite
View from above satellite

Ground track
Ground track

The orbit data is extracted from the following two-line orbital elements,

1 19045U 88032A   13168.19494012  .00009570  00000-0  21046-3 0  5183
2 19045 097.2773 226.5010 0005057 011.5751 021.5629 15.44188213383870
Epoch (UTC): 17 June 2013 04:40:42
Eccentricity: 0.0005057
inclination: 97.2773°
perigee height: 430 km
apogee height: 437 km
right ascension of ascending node: 226.5010°
argument of perigee: 11.5751°
revolutions per day: 15.44188213
mean anomaly at epoch: 21.5629°
orbit number at epoch: 38387

The dashed part of the orbit path shows where the satellite is in the earth's shadow,  

Developed and maintained by Chris Peat, Heavens-Above GmbH. Please read the updated FAQ before sending e-mail. Imprint. DLR